Location: Mount Kobau Star Party
(49.1167°N, 119.7333°W)
Time: 04:44:17
(UTC-07:00)

SR - Visible Passes

Search period start: 08 July 2025 00:00
Search period end: 18 July 2025 00:00
Orbit: 571 x 853 km, 66.7° (Epoch: 08 July)

Date Brightness Start Highest point End Pass type
(mag) Time Alt. Az. Time Alt. Az. Time Alt. Az.
08 Jul ? 22:19:41 10° NW 22:23:45 28° WSW 22:27:34 10° S visible
10 Jul ? 22:13:18 10° WNW 22:16:31 18° WSW 22:19:34 10° SSW visible
12 Jul ? 22:07:39 10° W 22:09:11 11° WSW 22:10:41 10° WSW visible
